Location: Perryvale
(54.4667°N, 113.3833°W)
Time: 22:27:55
(UTC+00:00)

SR - Pass Details

Date: 19 May 2024
Orbit: 580 x 858 km, 66.7° (Epoch: 13 June)

Event Time Altitude Azimuth Distance (km) Brightness Sun altitude
Rises 04:55:17 0° 266° (W) 3,144 ? -8.6°
Reaches altitude 10° 04:58:04 10° 278° (W) 2,172 ? -8.9°
Maximum altitude 05:02:11 26° 335° (NNW) 1,316 ? -9.2°
Drops below altitude 10° 05:06:03 10° 33° (NNE) 2,035 ? -9.5°
Sets 05:08:35 0° 46° (NE) 2,905 ? -9.7°
